User: anonymous   Login
Location: Caltech
(34.1382°N, 118.1253°W)
Time: 23:42:47
(UTC-07:00)
Language:

Cosmos 1939 Rocket - Orbit

View from above orbital plane
View from above orbital plane
View from above satellite
View from above satellite

Ground track
Ground track

The orbit data is extracted from the following two-line orbital elements,

1 19046U 88032B   18116.57534040 +.00000168 +00000-0 +16998-4 0  9998
2 19046 097.4877 158.6606 0036333 352.6812 007.3878 15.02423290619402
Epoch (UTC): 26 April 2018 13:48:29
Eccentricity: 0.0036333
inclination: 97.4877°
perigee height: 534 km
apogee height: 584 km
right ascension of ascending node: 158.6606°
argument of perigee: 352.6812°
revolutions per day: 15.02423290
mean anomaly at epoch: 7.3878°
orbit number at epoch: 61940

The dashed part of the orbit path shows where the satellite is in the earth's shadow,  

DLR